Regional Weather Roundup
Issued by NWS

Home | Current Version | Previous Version | Graphics & Text | Print | Product List | Glossary On
Versions: 1 2 3 4 5 6 7 8 9 10 11 12 13 14 15 16 17 18 19 20 21 22 23 24 25 26 27 28 29 30 31 32 33 34 35 36 37 38 39 40 41 42 43 44 45 46 47 48 49 50
000
ASUS43 KDTX 010201
RWRMI
MICHIGAN HOURLY REGIONAL WEATHER ROUNDUP
NATIONAL WEATHER SERVICE DETROIT/PONTIAC MI
1000 PM EDT SAT APR 30 2016

NOTE: "FAIR" INDICATES FEW OR NO CLOUDS BELOW 12,000 FEET WITH NO
SIGNIFICANT WEATHER AND/OR OBSTRUCTION TO VISIBILITY.

MIZ047>049-052>055-059>063-066>070-074>076-081>083-010300-
SOUTHEAST LOWER MICHIGAN

CITY           SKY/WX    TMP DP  RH WIND       PRES   REMARKS
ADRIAN         LGT RAIN  47  46  97 E14       29.96F
ALMA           RAIN      44  42  93 NE8       30.04S
ANN ARBOR      LGT RAIN  48  46  93 E10       29.98F FOG
BAD AXE        LGT RAIN  45  35  67 NE6       30.07F
CARO           LGT RAIN  45  37  73 E3        30.05S
DETROIT CITY   LGT RAIN  48  46  93 NE9       30.01F FOG
DETROIT        RAIN      49  47  93 NE7       30.00F FOG
FLINT          LGT RAIN  48  42  80 E12       30.03F
GROSSE ILE     LGT RAIN  48  46  93 E10       29.98F
HILLSDALE      LGT RAIN  46  46 100 E16       29.93S
HOWELL         RAIN      48  47  97 E6        30.00F

CITY           SKY/WX    TMP DP  RH WIND       PRES   REMARKS
JACKSON        LGT RAIN  47  45  93 E10       29.97F FOG
LAMBERTVILLE   LGT RAIN  49  47  93 E9G16     29.96F
LANSING        LGT RAIN  48  46  93 E12       30.00F FOG
LAPEER         LGT RAIN  43  39  87 E3        30.04F
MASON          RAIN      47  45  93 E8        29.99S
MONROE         DRIZZLE   47  47  99 E14G20    29.96F
MT. CLEMENS    LGT RAIN  46  46 100 NE9       30.01F
PONTIAC        LGT RAIN  45  43  93 E10       30.00F FOG
PORT HOPE        N/A     44  35  70 VRB6      30.06F
PORT HURON     DRIZZLE   43  41  93 NE3       30.05F
TRI CITIES     LGT RAIN  48  39  71 E9        30.06S
MIDLAND        DRIZZLE   44  37  75 NE7       30.06S
TROY           RAIN      49  48  95 NE9G16    30.03F
SAGINAW HB     RAIN      45  41  87 NE6       30.04F
$$
MIZ043>046-050>051-056>058-064>065-071>073-077>080-010300-
SOUTHWEST LOWER MICHIGAN

CITY           SKY/WX    TMP DP  RH WIND       PRES   REMARKS
BATTLE CREEK   LGT RAIN  48  46  93 E9        29.96S FOG
BENTON HARBOR  CLOUDY    49  46  90 NE7       29.94R
BIG RAPIDS     LGT RAIN  46  37  71 E8        30.05R
COLDWATER      LGT RAIN  47  46  97 E10       29.94S
FREMONT        RAIN      46  43  90 NE9       30.04R
HOLLAND        LGT RAIN  48  45  89 NE9G18    29.99R FOG
GRAND RAPIDS   RAIN      48  46  93 NE10      30.00R FOG
IONIA          RAIN      47  46  96 NE8       30.00R
KALAMAZOO      LGT RAIN  49  45  86 E6        29.95R FOG
LUDINGTON      RAIN      49  41  74 E3        30.07R
MARSHALL       LGT RAIN  47  46  93 E7        29.96R
MOUNT PLEASANT DRIZZLE   44  36  73 NE10      30.05S
MUSKEGON       RAIN      47  42  83 NE9       30.03R
$$
MIZ016>042-010300-
NORTHERN LOWER MICHIGAN

CITY           SKY/WX    TMP DP  RH WIND       PRES   REMARKS
ALPENA         CLOUDY    46  29  51 NE5       30.11F
BEAVER ISLAND  CLOUDY    46  32  59 NE5       30.15R
BELLAIRE       CLOUDY    54  26  34 CALM      30.09R
CADILLAC       CLOUDY    50  28  42 E9        30.05S
CHARLEVOIX     CLOUDY    51  26  38 NE8       30.14R
FRANKFORT      CLOUDY    52  33  49 NE5       30.07R
GAYLORD        MOCLDY    50  23  34 E7        30.10R
GRAYLING       CLOUDY    50  27  40 NE10      30.09S
HARBOR SPRINGS CLOUDY    50  25  37 NE7       30.12R
HOUGHTON LAKE  CLOUDY    50  27  40 E12       30.07S
MANISTEE       CLOUDY    52  32  46 CALM      30.07R
OSCODA         CLOUDY    48  31  53 N7        30.09S
PELLSTON       CLOUDY    47  29  49 N7        30.13R
ROGERS CITY    CLOUDY    39  35  84 CALM      30.13S
TRAVERSE CITY  CLOUDY    48  35  60 CALM      30.07R
$$
MIZ007>008-015-010300-
EASTERN UPPER MICHIGAN

CITY           SKY/WX    TMP DP  RH WIND       PRES   REMARKS
KINROSS          N/A     45  36  70 NW3       30.15S
MACKINAC ISLAN CLOUDY    42  27  53 NE9       30.15S
NEWBERRY       CLOUDY    42  35  75 NW5       30.16S
S. S. MARIE    CLOUDY    41  34  76 W5        30.15R
MUNISING         N/A     39  35  86 NW6       30.19S WCI  35
$$
MIZ004>006-011>014-085-010300-
CENTRAL UPPER MICHIGAN

CITY           SKY/WX    TMP DP  RH WIND       PRES   REMARKS
MANISTIQUE     CLOUDY    45  34  66 N10       30.16R
ESCANABA       CLOUDY    45  32  61 N8G16     30.17R
MENOMINEE      CLOUDY    48  30  49 NE17      30.11F
SAWYER-GWINN   CLEAR     36  32  87 N6        30.18R WCI  31
$$
MIZ001>003-009>011-084-010300-
WESTERN UPPER MICHIGAN

CITY           SKY/WX    TMP DP  RH WIND       PRES   REMARKS
IRON MOUNTAIN  PTCLDY    46  30  53 NE10      30.15R
HOUGHTON       CLEAR     41  32  70 NE7       30.21S
COPPER HARBOR    N/A     40  36  86 N6        30.23S
IRONWOOD         N/A     41  34  75 NE7       30.19R
$$

ABBREVIATIONS USED IN REMARKS
   TC - TEMPERATURE IN CELSIUS
  WCI - WIND CHILL INDEX
   HX - HEAT INDEX
  VSB - VISIBILITY





USA.gov is the U.S. government's official web portal to all federal, state and local government web resources and services.